Hourly Data Report for October 09, 2013

All times are specified in Local Standard Time (LST). Add 1 hour to adjust for Daylight Saving Time where and when it is observed.

MONCTON INTL A
NEW BRUNSWICK

46°06'44.000" N
64°40'43.000" W
70.70 m
8103201
71705
YQM

Download Data

Hourly Data (October 2013)
Hourly Data Report for October 9, 2013
Temp Definition
°C
Dew Point Temp Definition
°C
Rel Hum Definition
%
Wind Dir Definition
10's deg

Wind Spd Definition
km/h
Visibility Definition
km
Stn Press Definition
kPa
Hmdx Definition


Wind Chill Definition


Weather Definition


TIME
00:00 Legend Double Dagger 4.7 1.9 82 21 12 24.1 101.73     LegendNANA
01:00 Legend Double Dagger 3.7 1.7 87 21 13 24.1 101.82     LegendNANA
02:00 Legend Double Dagger 3.3 1.5 88 23 15 24.1 101.85     Clear
03:00 Legend Double Dagger 2.8 1.2 89 21 12 24.1 101.90     LegendNANA
04:00 Legend Double Dagger 3.1 1.6 90 22 15 24.1 101.93     LegendNANA
05:00 Legend Double Dagger 1.8 0.6 92 22 14 24.1 101.99     Clear
06:00 Legend Double Dagger 1.0 0.1 94 22 13 24.1 102.00     LegendNANA
07:00 Legend Double Dagger 1.7 0.5 92 22 14 24.1 102.08     LegendNANA
08:00 Legend Double Dagger 4.2 2.1 86 22 14 24.1 102.14     Clear
09:00 Legend Double Dagger 7.0 3.6 79 24 14 24.1 102.14     LegendNANA
10:00 Legend Double Dagger 9.9 4.1 67 23 12 24.1 102.13     LegendNANA
11:00 Legend Double Dagger 12.9 4.1 55 30 12 24.1 102.08     Clear
12:00 Legend Double Dagger 13.8 3.6 50 29 6 24.1 102.03     LegendNANA
13:00 Legend Double Dagger 14.8 2.4 43 25 18 24.1 101.96     LegendNANA
14:00 Legend Double Dagger 15.7 2.9 42 27 16 24.1 101.93     Clear
15:00 Legend Double Dagger 16.2 3.0 41 26 13 24.1 101.89     LegendNANA
16:00 Legend Double Dagger 15.8 4.3 46 23 14 24.1 101.84     LegendNANA
17:00 Legend Double Dagger 14.5 3.7 48 23 15 24.1 101.84     Mainly Clear
18:00 Legend Double Dagger 12.6 3.9 55 23 6 24.1 101.82     LegendNANA
19:00 Legend Double Dagger 10.6 4.6 66 21 10 24.1 101.80     LegendNANA
20:00 Legend Double Dagger 9.2 4.6 73 19 12 24.1 101.78     Clear
21:00 Legend Double Dagger 7.6 5.3 85 20 13 24.1 101.80     LegendNANA
22:00 Legend Double Dagger 7.7 4.8 82 20 13 24.1 101.78     LegendNANA
23:00 Legend Double Dagger 6.7 4.2 84 20 11 32.2 101.74     Clear

Notes on Data Quality.

Legend

  • E = Estimated
  • M = Missing
  • NA = Not Available
  • ‡ = Partner data that is not subject to review by the National Climate Archives
Date modified: